Suffolk, VA

11:56 AM EDT on May 23, 2017 (GMT -0400)
Suffolk Municipal

Weather History for KSFQ - April, 2013

Change the Weather History Date:

Friday, April 19, 2013

  Actual Average Record
Temperature  
Mean Temperature 72 °F -  
Max Temperature 84 °F 71 °F 93 °F (2002)
Min Temperature 60 °F 48 °F 28 °F (2001)
Cooling Degree Days 7    
Growing Degree Days 22 (Base 50)    
Moisture  
Dew Point 66 °F    
Average Humidity 81    
Maximum Humidity 100    
Minimum Humidity 51    
Precipitation  
Precipitation 0.29 in - - ()
Sea Level Pressure  
Sea Level Pressure 29.91 in    
Wind  
Wind Speed 10 mph (South)    
Max Wind Speed 31 mph    
Max Gust Speed 38 mph    
Visibility 10 miles    
Events Rain    
Averages and records for this station are not official NWS values.
T = Trace of Precipitation, MM = Missing Value Source: NWS Daily Summary

Daily Weather History Graph

Daily Weather History Graph

Search for Another Location

Airport or City:

Trip Planner

Search our weather history database for the weather conditions in past years. The results will help you decide how hot, cold, wet, or windy it might be!

Date:

Astronomy

Apr. 19, 2013 Rise Set
Actual Time 6:26 AM EDT 7:44 PM EDT
Civil Twilight 6:00 AM EDT 8:11 PM EDT
Nautical Twilight 5:27 AM EDT 8:43 PM EDT
Astronomical Twilight 4:54 AM EDT 9:17 PM EDT
Moon 1:36 PM EDT (4/19) 2:31 AM EDT (4/19)
Length of Visible Light 14h 11m
Length of Day
13h 17m
First Quarter, 61% of the Moon is Illuminated
Apr 19
First Quarter
Apr 25
Full
May 2
Last Quarter
May 9
New
May 18
First Quarter

Hourly Weather History & Observations

Time (EDT) Temp. Heat Index Dew Point Humidity Pressure Visibility Wind Dir Wind Speed Gust Speed Precip Events Conditions
12:15 AM 62.6 °F - 60.8 °F 94% 30.09 in 10.0 mi South 3.5 mph - N/A   Clear
12:35 AM 62.6 °F - 60.8 °F 94% 30.08 in 10.0 mi SE 3.5 mph - N/A   Clear
12:55 AM 62.6 °F - 60.8 °F 94% 30.08 in 10.0 mi Calm Calm - N/A   Clear
1:15 AM 62.6 °F - 60.8 °F 94% 30.07 in 10.0 mi SSE 3.5 mph - N/A   Clear
1:35 AM 60.8 °F - 60.8 °F 100% 30.06 in 10.0 mi Calm Calm - N/A   Clear
1:55 AM 60.8 °F - 60.8 °F 100% 30.05 in 10.0 mi Calm Calm - N/A   Clear
2:15 AM 62.6 °F - 60.8 °F 94% 30.04 in 10.0 mi SSE 4.6 mph - N/A   Clear
2:35 AM 62.6 °F - 62.6 °F 100% 30.03 in 10.0 mi SSE 4.6 mph - N/A   Clear
2:55 AM 62.6 °F - 62.6 °F 100% 30.02 in 10.0 mi South 5.8 mph - N/A   Clear
3:15 AM 64.4 °F - 62.6 °F 94% 30.01 in 10.0 mi SSE 8.1 mph - N/A   Mostly Cloudy
3:35 AM 64.4 °F - 64.4 °F 100% 30.01 in 10.0 mi South 6.9 mph - N/A   Overcast
3:55 AM 64.4 °F - 62.6 °F 94% 30.01 in 10.0 mi South 6.9 mph - N/A   Scattered Clouds
4:15 AM 64.4 °F - 64.4 °F 100% 30.00 in 10.0 mi SSE 6.9 mph - N/A   Clear
4:35 AM 64.4 °F - 62.6 °F 94% 29.99 in 10.0 mi SSE 5.8 mph - N/A   Scattered Clouds
4:55 AM 64.4 °F - 62.6 °F 94% 29.99 in 10.0 mi SSE 5.8 mph - N/A   Scattered Clouds
5:15 AM 64.4 °F - 62.6 °F 94% 29.99 in 10.0 mi SSE 3.5 mph - N/A   Clear
5:35 AM 64.4 °F - 64.4 °F 100% 29.98 in 10.0 mi SE 5.8 mph - N/A   Scattered Clouds
5:55 AM 64.4 °F - 64.4 °F 100% 29.99 in 10.0 mi SSE 5.8 mph - N/A   Scattered Clouds
6:15 AM 64.4 °F - 64.4 °F 100% 29.99 in 10.0 mi SSE 8.1 mph - N/A   Mostly Cloudy
6:35 AM 66.2 °F - 64.4 °F 94% 29.99 in 10.0 mi SSE 4.6 mph - N/A   Overcast
6:55 AM 66.2 °F - 66.2 °F 100% 29.98 in 10.0 mi SSE 6.9 mph - N/A   Mostly Cloudy
7:15 AM 66.2 °F - 66.2 °F 100% 29.98 in 10.0 mi SSE 5.8 mph - N/A   Scattered Clouds
7:35 AM 68.0 °F - 66.2 °F 94% 29.98 in 10.0 mi SSE 5.8 mph - N/A   Mostly Cloudy
7:55 AM 69.8 °F - 66.2 °F 88% 29.98 in 10.0 mi South 8.1 mph - N/A   Overcast
8:15 AM 69.8 °F - 66.2 °F 88% 29.98 in 10.0 mi South 8.1 mph - N/A   Overcast
8:35 AM 69.8 °F - 68.0 °F 94% 29.98 in 10.0 mi South 9.2 mph - N/A   Mostly Cloudy
8:55 AM 71.6 °F - 66.2 °F 83% 29.97 in 10.0 mi South 12.7 mph 19.6 mph N/A   Scattered Clouds
9:15 AM 71.6 °F - 66.2 °F 83% 29.97 in 10.0 mi South 13.8 mph 19.6 mph N/A   Scattered Clouds
9:35 AM 71.6 °F - 66.2 °F 83% 29.97 in 10.0 mi SSW 13.8 mph - N/A   Scattered Clouds
9:55 AM 73.4 °F - 68.0 °F 83% 29.97 in 10.0 mi SSW 13.8 mph 20.7 mph N/A   Scattered Clouds
10:15 AM 75.2 °F - 68.0 °F 78% 29.96 in 10.0 mi SSW 15.0 mph 20.7 mph N/A   Scattered Clouds
10:35 AM 75.2 °F - 68.0 °F 78% 29.96 in 10.0 mi South 16.1 mph 24.2 mph N/A   Scattered Clouds
10:55 AM 75.2 °F - 68.0 °F 78% 29.96 in 10.0 mi SSW 13.8 mph 23.0 mph N/A   Scattered Clouds
11:35 AM 78.8 °F - 66.2 °F 65% 29.95 in 10.0 mi SSW 19.6 mph 25.3 mph N/A   Scattered Clouds
11:55 AM 80.6 °F 82.7 °F 66.2 °F 61% 29.94 in 10.0 mi South 18.4 mph 29.9 mph N/A   Scattered Clouds
12:15 PM 78.8 °F - 66.2 °F 65% 29.93 in 10.0 mi SSW 20.7 mph 27.6 mph N/A   Scattered Clouds
12:35 PM 80.6 °F 82.7 °F 66.2 °F 61% 29.91 in 10.0 mi SSW 19.6 mph 25.3 mph N/A   Scattered Clouds
12:55 PM 82.4 °F 83.9 °F 64.4 °F 54% 29.90 in 10.0 mi SSW 15.0 mph 26.5 mph N/A   Clear
1:15 PM 82.4 °F 83.9 °F 64.4 °F 54% 29.89 in 10.0 mi SSW 21.9 mph 27.6 mph N/A   Clear
1:35 PM 82.4 °F 83.9 °F 64.4 °F 54% 29.88 in 10.0 mi South 19.6 mph 24.2 mph N/A   Scattered Clouds
1:55 PM 82.4 °F 83.9 °F 64.4 °F 54% 29.87 in 10.0 mi SSW 17.3 mph 32.2 mph N/A   Scattered Clouds
2:15 PM 82.4 °F 83.9 °F 64.4 °F 54% 29.86 in 10.0 mi SSW 15.0 mph 25.3 mph N/A   Scattered Clouds
2:35 PM 84.2 °F 85.6 °F 64.4 °F 51% 29.85 in 10.0 mi South 18.4 mph 29.9 mph N/A   Clear
2:55 PM 82.4 °F 84.6 °F 66.2 °F 58% 29.85 in 10.0 mi South 31.1 mph 36.8 mph N/A   Scattered Clouds
3:15 PM 80.6 °F 83.2 °F 68.0 °F 65% 29.84 in 10.0 mi South 17.3 mph 24.2 mph N/A   Clear
3:35 PM 82.4 °F 86.3 °F 69.8 °F 66% 29.81 in 10.0 mi South 23.0 mph 28.8 mph N/A   Clear
3:55 PM 82.4 °F 86.3 °F 69.8 °F 66% 29.81 in 10.0 mi South 23.0 mph 32.2 mph N/A   Clear
4:15 PM 80.6 °F 83.9 °F 69.8 °F 70% 29.80 in 10.0 mi South 23.0 mph 34.5 mph N/A   Clear
4:35 PM 80.6 °F 83.9 °F 69.8 °F 70% 29.80 in 10.0 mi South 20.7 mph 28.8 mph N/A   Clear
4:55 PM 80.6 °F 83.9 °F 69.8 °F 70% 29.79 in 10.0 mi South 21.9 mph 28.8 mph N/A   Clear
5:15 PM 80.6 °F 83.9 °F 69.8 °F 70% 29.80 in 10.0 mi South 23.0 mph 27.6 mph N/A   Scattered Clouds
5:35 PM 80.6 °F 83.9 °F 69.8 °F 70% 29.78 in 10.0 mi South 19.6 mph 29.9 mph N/A   Clear
5:55 PM 80.6 °F 82.7 °F 66.2 °F 61% 29.78 in 10.0 mi South 21.9 mph 38.0 mph N/A   Clear
6:15 PM 78.8 °F - 68.0 °F 69% 29.78 in 10.0 mi South 26.5 mph 34.5 mph N/A   Scattered Clouds
6:35 PM 78.8 °F - 68.0 °F 69% 29.77 in 10.0 mi South 13.8 mph 26.5 mph N/A   Scattered Clouds
6:55 PM 78.8 °F - 68.0 °F 69% 29.77 in 10.0 mi South 21.9 mph 34.5 mph N/A Rain Light Rain
7:15 PM 77.0 °F - 68.0 °F 74% 29.77 in 10.0 mi South 23.0 mph 38.0 mph N/A   Clear
7:35 PM 77.0 °F - 66.2 °F 69% 29.79 in 10.0 mi South 20.7 mph 33.4 mph N/A   Scattered Clouds
7:55 PM 77.0 °F - 66.2 °F 69% 29.79 in 10.0 mi South 21.9 mph 29.9 mph N/A   Clear
8:15 PM 77.0 °F - 66.2 °F 69% 29.80 in 10.0 mi South 20.7 mph 29.9 mph N/A   Clear
8:35 PM 75.2 °F - 66.2 °F 73% 29.81 in 10.0 mi South 24.2 mph 32.2 mph N/A Rain Light Rain
8:55 PM 75.2 °F - 66.2 °F 73% 29.82 in 10.0 mi SSW 16.1 mph 21.9 mph N/A   Clear
9:15 PM 75.2 °F - 66.2 °F 73% 29.82 in 10.0 mi SSW 13.8 mph 27.6 mph N/A   Scattered Clouds
9:35 PM 75.2 °F - 66.2 °F 73% 29.83 in 10.0 mi South 17.3 mph 26.5 mph N/A   Mostly Cloudy
9:55 PM 75.2 °F - 68.0 °F 78% 29.83 in 10.0 mi SSW 12.7 mph 21.9 mph N/A Rain Light Rain
10:15 PM 69.8 °F - 66.2 °F 88% 29.86 in 5.0 mi SW 20.7 mph 31.1 mph 0.12 in Rain Heavy Rain
10:35 PM 68.0 °F - 66.2 °F 94% 29.85 in 10.0 mi SSW 15.0 mph 24.2 mph 0.21 in Rain Rain
10:55 PM 66.2 °F - 64.4 °F 94% 29.84 in 7.0 mi SSW 10.4 mph - 0.22 in Rain Light Rain
11:15 PM 66.2 °F - 64.4 °F 94% 29.83 in 10.0 mi SSW 10.4 mph - 0.01 in Rain Rain
11:35 PM 66.2 °F - 64.4 °F 94% 29.83 in 10.0 mi South 8.1 mph - 0.05 in Rain Rain
11:55 PM 66.2 °F - 66.2 °F 100% 29.84 in 10.0 mi SSW 8.1 mph - 0.07 in Rain Light Rain